Change the Weather History Date:

Sunday, November 11, 2012

  Actual Average (KJKL) Record (KJKL)
Temperature  
Mean Temperature 58 °F 50 °F  
Max Temperature 72 °F 59 °F 73 °F (2012)
Min Temperature 45 °F 41 °F 26 °F (1987)
Degree Days  
Heating Degree Days 6 15  
Month to date heating degree days 147  
Since 1 July heating degree days 444  
Cooling Degree Days 0 0  
Month to date cooling degree days 0  
Year to date cooling degree days 1150  
Growing Degree Days 8 (Base 50)    
Moisture  
Dew Point 37 °F    
Average Humidity 43    
Maximum Humidity 78    
Minimum Humidity 24    
Precipitation  
Precipitation 0.00 in 0.12 in 0.78 in (1986)
Month to date precipitation 1.35  
Year to date precipitation 41.55  
Snow  
Snow - 0.00 in - ()
Month to date snowfall 0.1  
Since 1 July snowfall 0.2  
Since 1 September snowfall 0.2  
Snow Depth -    
Sea Level Pressure  
Sea Level Pressure 30.27 in    
Wind  
Wind Speed 3 mph ()    
Max Wind Speed 17 mph    
Max Gust Speed 26 mph    
Visibility 10.0 miles    
Events      
T = Trace of Precipitation, MM = Missing Value Source: Averaged Metar Reports

Daily Weather History Graph

Daily Weather History Graph

Search for Another Location

Airport or City:

Trip Planner

Search our weather history database for the weather conditions in past years. The results will help you decide how hot, cold, wet, or windy it might be!

Date:

Astronomy

Nov. 11, 2012 Rise Set
Actual Time 7:06 AM EST 5:21 PM EST
Civil Twilight 6:39 AM EST 5:49 PM EST
Nautical Twilight 6:07 AM EST 6:21 PM EST
Astronomical Twilight 5:36 AM EST 6:52 PM EST
Moon 4:21 AM EST (11/11) 3:43 PM EST (11/11)
Length of Visible Light 11h 10m
Length of Day
10h 14m
Waning Crescent, 7% of the Moon is Illuminated
Nov 11
Waning Crescent
Nov 13
New
Nov 20
First Quarter
Nov 28
Full
Dec 6
Last Quarter

Hourly Weather History & Observations

Time (EST) Temp. Dew Point Humidity Pressure Visibility Wind Dir Wind Speed Gust Speed Precip Events Conditions
12:15 AM 59.5 °F 35.8 °F 41% 30.25 in 10.0 mi SSW 5.8 mph - N/A   Clear
12:35 AM 59.2 °F 35.8 °F 42% 30.26 in 10.0 mi SW 4.6 mph - N/A   Clear
12:55 AM 57.2 °F 36.1 °F 45% 30.26 in 10.0 mi WSW 4.6 mph - N/A   Clear
1:15 AM 56.1 °F 36.1 °F 47% 30.26 in 10.0 mi Calm Calm - N/A   Clear
1:35 AM 56.5 °F 36.0 °F 46% 30.26 in 10.0 mi Calm Calm - N/A   Clear
1:55 AM 55.0 °F 35.8 °F 48% 30.26 in 10.0 mi Calm Calm - N/A   Clear
2:15 AM 54.0 °F 35.6 °F 50% 30.26 in 10.0 mi Calm Calm - N/A   Clear
2:35 AM 54.1 °F 35.8 °F 50% 30.25 in 10.0 mi Calm Calm - N/A   Clear
2:55 AM 54.0 °F 35.6 °F 50% 30.26 in 10.0 mi Calm Calm - N/A   Clear
3:15 AM 52.7 °F 35.6 °F 52% 30.26 in 10.0 mi Calm Calm - N/A   Clear
3:35 AM 54.9 °F 34.7 °F 47% 30.26 in 10.0 mi Calm Calm - N/A   Clear
3:55 AM 51.8 °F 35.6 °F 54% 30.25 in 10.0 mi Calm Calm - N/A   Clear
4:15 AM 51.3 °F 34.7 °F 53% 30.26 in 10.0 mi Calm Calm - N/A   Clear
4:35 AM 53.1 °F 34.2 °F 49% 30.27 in 10.0 mi Calm Calm - N/A   Clear
4:55 AM 51.3 °F 35.1 °F 54% 30.28 in 10.0 mi Calm Calm - N/A   Clear
5:15 AM 49.6 °F 34.9 °F 57% 30.29 in 10.0 mi Calm Calm - N/A   Clear
5:35 AM 48.4 °F 36.0 °F 62% 30.30 in 10.0 mi Calm Calm - N/A   Clear
5:55 AM 48.7 °F 36.3 °F 62% 30.31 in 10.0 mi Calm Calm - N/A   Clear
6:35 AM 46.8 °F 36.0 °F 66% 30.32 in 10.0 mi Calm Calm - N/A   Clear
6:55 AM 46.6 °F 35.8 °F 66% 30.33 in 10.0 mi Calm Calm - N/A   Clear
7:15 AM 47.5 °F 35.4 °F 63% 30.34 in 10.0 mi East 3.5 mph - N/A   Clear
7:35 AM 46.4 °F 35.6 °F 66% 30.34 in 10.0 mi Calm Calm - N/A   Clear
7:55 AM 45.1 °F 38.7 °F 78% 30.34 in 10.0 mi Calm Calm - N/A   Clear
8:15 AM 48.0 °F 38.5 °F 70% 30.35 in 10.0 mi Calm Calm - N/A   Clear
8:35 AM 52.0 °F 41.5 °F 68% 30.36 in 10.0 mi Calm Calm - N/A   Clear
9:15 AM 54.9 °F 38.7 °F 54% 30.37 in 10.0 mi Calm Calm - N/A   Clear
9:35 AM 57.2 °F 39.2 °F 51% 30.37 in 10.0 mi Calm Calm - N/A   Clear
9:55 AM 59.2 °F 41.2 °F 51% 30.36 in 10.0 mi Calm Calm - N/A   Clear
10:35 AM 61.7 °F 39.7 °F 44% 30.36 in 10.0 mi ESE 3.5 mph - N/A   Clear
10:55 AM 63.7 °F 39.0 °F 40% 30.36 in 10.0 mi Calm Calm - N/A   Clear
11:15 AM 64.4 °F 37.2 °F 37% 30.35 in 10.0 mi Calm Calm - N/A   Clear
11:35 AM 65.1 °F 34.2 °F 32% 30.34 in 10.0 mi SSE 3.5 mph - N/A   Clear
11:55 AM 66.9 °F 34.0 °F 30% 30.32 in 10.0 mi SSE 5.8 mph - N/A   Clear
12:15 PM 67.6 °F 32.2 °F 27% 30.31 in 10.0 mi South 3.5 mph - N/A   Clear
12:35 PM 68.4 °F 32.5 °F 27% 30.29 in 10.0 mi South 8.1 mph - N/A   Clear
12:55 PM 69.8 °F 34.7 °F 27% 30.29 in 10.0 mi South 6.9 mph - N/A   Clear
1:15 PM 68.5 °F 34.2 °F 28% 30.28 in 10.0 mi Calm Calm - N/A   Clear
1:55 PM 71.6 °F 33.1 °F 24% 30.26 in 10.0 mi SW 8.1 mph - N/A   Clear
2:15 PM 72.0 °F 32.9 °F 24% 30.24 in 10.0 mi SW 5.8 mph - N/A   Clear
2:35 PM 72.1 °F 34.2 °F 25% 30.24 in 10.0 mi Calm Calm - N/A   Clear
3:15 PM 72.1 °F 34.2 °F 25% 30.22 in 10.0 mi Calm Calm - N/A   Clear
3:35 PM 71.6 °F 34.0 °F 25% 30.22 in 10.0 mi WSW 3.5 mph - N/A   Clear
3:55 PM 71.6 °F 33.8 °F 25% 30.22 in 10.0 mi SW 3.5 mph - N/A   Clear
4:15 PM 71.6 °F 34.0 °F 25% 30.22 in 10.0 mi SW 4.6 mph - N/A   Clear
4:35 PM 70.9 °F 34.2 °F 26% 30.22 in 10.0 mi South 9.2 mph - N/A   Clear
4:55 PM 70.7 °F 32.2 °F 24% 30.22 in 10.0 mi SSW 6.9 mph - N/A   Clear
5:15 PM 70.0 °F 32.0 °F 25% 30.22 in 10.0 mi South 8.1 mph 17.3 mph N/A   Clear
5:35 PM 69.3 °F 31.8 °F 25% 30.22 in 10.0 mi SSW 6.9 mph - N/A   Clear
5:55 PM 68.9 °F 31.8 °F 25% 30.22 in 10.0 mi SSW 6.9 mph - N/A   Clear
6:15 PM 69.1 °F 32.0 °F 25% 30.22 in 10.0 mi SSW 5.8 mph - N/A   Clear
6:35 PM 66.9 °F 32.2 °F 27% 30.22 in 10.0 mi South 4.6 mph - N/A   Clear
6:55 PM 65.5 °F 33.3 °F 30% 30.22 in 10.0 mi South 4.6 mph - N/A   Clear
7:15 PM 66.0 °F 33.1 °F 29% 30.22 in 10.0 mi SSE 6.9 mph - N/A   Clear
7:35 PM 67.1 °F 33.3 °F 29% 30.22 in 10.0 mi SSE 9.2 mph - N/A   Clear
7:55 PM 67.5 °F 36.5 °F 32% 30.22 in 10.0 mi South 11.5 mph - N/A   Clear
8:15 PM 66.6 °F 37.4 °F 34% 30.22 in 10.0 mi South 9.2 mph - N/A   Clear
8:35 PM 66.4 °F 41.4 °F 40% 30.23 in 10.0 mi South 12.7 mph 20.7 mph N/A   Clear
8:55 PM 66.4 °F 43.0 °F 43% 30.23 in 10.0 mi South 15.0 mph 23.0 mph N/A   Clear
9:15 PM 65.8 °F 43.7 °F 45% 30.23 in 10.0 mi South 13.8 mph 26.5 mph N/A   Clear
9:35 PM 65.5 °F 44.4 °F 46% 30.23 in 10.0 mi South 15.0 mph 25.3 mph N/A   Clear
9:55 PM 65.3 °F 44.8 °F 47% 30.23 in 10.0 mi South 17.3 mph 23.0 mph N/A   Clear
10:15 PM 64.6 °F 45.0 °F 49% 30.23 in 10.0 mi South 12.7 mph 18.4 mph N/A   Clear
10:35 PM 64.4 °F 45.0 °F 49% 30.23 in 10.0 mi South 13.8 mph 18.4 mph N/A   Clear
10:55 PM 63.7 °F 45.0 °F 51% 30.22 in 10.0 mi South 10.4 mph 16.1 mph N/A   Clear
11:15 PM 63.7 °F 45.1 °F 51% 30.22 in 10.0 mi South 10.4 mph 16.1 mph N/A   Clear
11:35 PM 63.7 °F 45.1 °F 51% 30.22 in 10.0 mi South 11.5 mph - N/A   Clear
11:55 PM 64.0 °F 45.5 °F 51% 30.21 in 10.0 mi South 13.8 mph 18.4 mph N/A   Clear